Date String (YYYY-MM-DD hh:mm:ss) UTC,Instrument flags,Ambient pressure (hPa),Sample flow (lpm),Bypass flow (lpm),Sample temperature (°C),Ambient temperature (°C),ASC tube jacket temperature (°C),LED temperature (°C),Box temperature (°C),Sample RH (%),Span deviation,Mass concentration (μg/m³),Mass concentration (μg/m³),Mass concentration (μg/m³)
DateTimeUTC,F1_M11,P_M11,Q1_M11,Q2_M11,T1_M11,T2_M11,T3_M11,T4_M11,T5_M11,U1_M11,ZSPAN_M11,X0_M11,X2_M11,X1_M11
2022-07-29 12:00:00,,0830.6,5.00,0.00,30.6,29.1,00.0,39.3,32.2,33.8,0000.1,0012.44,0008.33,0007.82
2022-07-29 12:01:00,,0830.5,5.00,0.00,30.6,29.2,00.0,39.3,32.2,33.9,0000.1,0012.31,0008.31,0007.81
2022-07-29 12:02:00,,0830.5,4.99,0.00,30.6,29.2,00.0,39.3,32.2,34.0,0000.1,0012.23,0008.28,0007.80
2022-07-29 12:03:00,,0830.5,5.01,0.00,30.6,29.2,00.0,39.3,32.2,33.9,-000.4,0012.21,0008.24,0007.79
2022-07-29 12:04:00,,0830.5,5.00,0.00,30.6,29.2,00.0,39.3,32.3,33.9,-000.2,0011.94,0008.24,0007.80
2022-07-29 12:05:00,,0830.5,5.00,0.00,30.6,29.2,00.0,39.3,32.3,34.1,-000.3,0011.94,0008.26,0007.82
2022-07-29 12:06:00,,0830.5,4.99,0.00,30.6,29.2,00.0,39.3,32.3,34.7,-000.6,0011.46,0008.31,0007.89
2022-07-29 12:07:00,,0830.5,5.00,0.00,30.6,29.2,00.0,39.4,32.3,34.8,-000.8,0011.07,0008.40,0007.96
2022-07-29 12:08:00,,0830.5,5.01,0.00,30.6,29.2,00.0,39.4,32.3,34.6,-001.3,0011.16,0008.45,0008.02
2022-07-29 12:09:00,,0830.5,5.00,0.00,30.6,29.3,00.0,39.4,32.3,34.6,-001.5,0011.23,0008.51,0008.09
2022-07-29 12:10:00,,0830.5,5.00,0.00,30.7,29.3,00.0,39.4,32.3,34.8,-001.7,0011.30,0008.56,0008.15
2022-07-29 12:11:00,,0830.6,4.99,0.00,30.7,29.3,00.0,39.4,32.3,34.9,-001.7,0011.50,0008.68,0008.22
2022-07-29 12:12:00,,0830.6,5.00,0.00,30.7,29.3,00.0,39.4,32.3,34.8,-001.6,0011.66,0008.75,0008.28
2022-07-29 12:13:00,,0830.6,5.00,0.00,30.7,29.3,00.0,39.4,32.3,34.6,-001.6,0011.76,0008.80,0008.31
2022-07-29 12:14:00,,0830.6,5.00,0.00,30.7,29.3,00.0,39.4,32.3,34.6,-001.3,0011.76,0008.84,0008.34
2022-07-29 12:15:00,,0830.6,4.99,0.00,30.7,29.4,00.0,39.4,32.3,34.6,-001.5,0011.95,0008.91,0008.39
2022-07-29 12:16:00,,0830.6,5.00,0.00,30.7,29.4,00.0,39.4,32.4,34.8,-001.4,0012.10,0009.01,0008.45
2022-07-29 12:17:00,,0830.7,5.00,0.00,30.7,29.3,00.0,39.4,32.4,34.9,-001.2,0012.22,0009.05,0008.48
2022-07-29 12:18:00,,0830.6,4.99,0.00,30.7,28.7,00.0,39.4,32.2,34.8,-000.9,0012.17,0009.05,0008.49
2022-07-29 12:19:00,,0830.6,5.00,0.00,30.6,28.1,00.0,39.3,32.1,35.1,-001.0,0012.14,0009.09,0008.52
2022-07-29 12:20:00,,0830.6,4.99,0.00,30.7,27.8,00.0,39.3,32.1,35.2,-001.2,0012.11,0009.09,0008.51
2022-07-29 12:21:00,,0830.7,5.01,0.00,30.8,27.8,00.0,39.3,32.1,34.7,-001.0,0012.21,0009.08,0008.49
2022-07-29 12:22:00,,0830.7,5.00,0.00,31.0,27.9,00.0,39.2,32.1,34.4,-001.0,0012.44,0009.02,0008.46
2022-07-29 12:23:00,,0830.7,4.99,0.00,31.0,28.0,00.0,39.2,32.1,34.2,-000.9,0012.69,0009.02,0008.45
2022-07-29 12:24:00,,0830.7,5.01,0.00,31.0,28.1,00.0,39.3,32.1,34.2,-001.0,0012.76,0009.05,0008.44
2022-07-29 12:25:00,,0830.8,4.99,0.00,31.0,28.2,00.0,39.3,32.1,34.1,-001.1,0012.79,0009.07,0008.44
2022-07-29 12:26:00,,0830.8,5.00,0.00,31.0,28.4,00.0,39.3,32.1,34.2,-001.2,0012.71,0009.07,0008.43
2022-07-29 12:27:00,,0830.8,5.01,0.00,31.0,28.5,00.0,39.3,32.1,34.2,-001.0,0012.63,0009.04,0008.42
2022-07-29 12:28:00,,0830.8,5.00,0.00,31.0,28.6,00.0,39.4,32.1,34.2,-000.9,0012.47,0008.96,0008.36
2022-07-29 12:29:00,,0830.8,5.00,0.00,31.0,28.6,00.0,39.4,32.1,34.3,-001.2,0012.43,0008.93,0008.31
2022-07-29 12:30:00,,0830.8,4.99,0.00,30.9,28.7,00.0,39.4,32.1,34.5,-001.1,0012.39,0008.89,0008.30
2022-07-29 12:31:00,,0830.8,5.01,0.00,30.9,28.8,00.0,39.4,32.2,34.8,-000.6,0012.38,0008.90,0008.32
2022-07-29 12:32:00,,0830.8,4.99,0.00,30.9,28.8,00.0,39.4,32.2,34.9,-000.6,0012.24,0008.90,0008.35
2022-07-29 12:33:00,,0830.8,5.01,0.00,30.9,28.9,00.0,39.4,32.2,35.2,-000.7,0011.93,0008.91,0008.37
2022-07-29 12:34:00,,0830.8,5.00,0.00,31.1,28.9,00.0,39.4,32.3,34.6,-000.6,0011.65,0008.87,0008.38
2022-07-29 12:35:00,,0830.8,5.00,0.00,31.2,29.0,00.0,39.5,32.4,34.1,-000.3,0011.56,0008.79,0008.35
2022-07-29 12:36:00,,0830.8,5.00,0.00,31.3,29.0,00.0,39.5,32.4,33.8,-000.5,0011.43,0008.73,0008.34
2022-07-29 12:37:00,,0830.9,5.00,0.00,31.3,29.1,00.0,39.5,32.4,33.7,-000.5,0011.31,0008.66,0008.30
2022-07-29 12:38:00,,0830.9,5.00,0.00,31.3,29.1,00.0,39.5,32.4,33.6,-000.7,0011.62,0008.65,0008.28
2022-07-29 12:39:00,,0831.0,5.00,0.00,31.3,29.1,00.0,39.6,32.4,33.7,-000.8,0011.91,0008.70,0008.28
2022-07-29 12:40:00,,0830.9,4.99,0.00,31.3,29.2,00.0,39.6,32.4,33.8,-000.7,0011.85,0008.68,0008.29
2022-07-29 12:41:00,,0830.9,5.00,0.00,31.3,29.2,00.0,39.6,32.4,33.8,-000.8,0011.86,0008.65,0008.26
2022-07-29 12:42:00,,0830.9,5.00,0.00,31.3,29.2,00.0,39.7,32.4,33.8,-000.9,0011.79,0008.59,0008.21
2022-07-29 12:43:00,,0830.9,5.00,0.00,31.3,29.2,00.0,39.7,32.4,33.9,-000.9,0011.81,0008.58,0008.19
2022-07-29 12:44:00,,0830.9,5.01,0.00,31.2,29.3,00.0,39.7,32.5,33.8,-001.0,0011.83,0008.57,0008.17
2022-07-29 12:45:00,,0830.9,5.00,0.00,31.2,29.3,00.0,39.7,32.5,33.8,-001.5,0011.75,0008.57,0008.15
2022-07-29 12:46:00,,0830.9,4.99,0.00,31.2,29.3,00.0,39.7,32.5,34.0,-001.9,0011.78,0008.60,0008.16
2022-07-29 12:47:00,,0830.9,5.01,0.00,31.2,29.3,00.0,39.7,32.5,34.0,-002.1,0011.79,0008.61,0008.18
2022-07-29 12:48:00,,0830.9,5.00,0.00,31.2,29.3,00.0,39.7,32.5,33.9,-002.0,0011.81,0008.63,0008.19
2022-07-29 12:49:00,,0830.9,5.00,0.00,31.2,29.4,00.0,39.8,32.5,34.0,-002.1,0011.56,0008.59,0008.19
2022-07-29 12:50:00,,0830.9,5.01,0.00,31.1,29.4,00.0,39.8,32.5,34.1,-002.2,0011.32,0008.55,0008.20
2022-07-29 12:51:00,,0830.9,5.01,0.00,31.1,29.4,00.0,39.8,32.5,34.2,-002.1,0011.35,0008.56,0008.18
2022-07-29 12:52:00,,0830.9,5.00,0.00,31.1,29.4,00.0,39.8,32.5,34.4,-002.0,0011.40,0008.58,0008.19
2022-07-29 12:53:00,,0830.9,5.00,0.00,31.1,29.4,00.0,39.8,32.5,35.1,-002.2,0011.49,0008.67,0008.26
2022-07-29 12:54:00,,0830.9,5.00,0.00,31.3,29.1,00.0,39.7,32.6,35.0,-002.3,0011.60,0008.75,0008.34
2022-07-29 12:55:00,,0831.0,5.01,0.00,31.4,28.4,00.0,39.7,32.5,34.4,-002.2,0011.61,0008.74,0008.34
2022-07-29 12:56:00,,0831.0,5.00,0.00,31.5,28.1,00.0,39.7,32.4,34.1,-001.8,0011.54,0008.74,0008.36
2022-07-29 12:57:00,,0830.9,5.00,0.00,31.4,28.0,00.0,39.7,32.2,34.1,-001.4,0011.50,0008.75,0008.38
2022-07-29 12:58:00,,0831.0,5.00,0.00,31.3,28.1,00.0,39.7,32.2,34.2,-000.7,0011.64,0008.82,0008.42
2022-07-29 12:59:00,,0831.0,5.01,0.00,31.3,28.2,00.0,39.6,32.2,34.4,-000.5,0011.78,0008.90,0008.49
